Volver al catálogo

COSMOS 2378

ActivoMilitarPO
NORAD 26818·PAYLOAD·🇷🇺 Russia

Lanzado Jun 8, 2001 desde Plesetsk Cosmodrome

Loading…

Próximos Pases (próximas 24 horas)

TLE

ActualizadoSource: Space-Track

Época: Sep 14, 2026, 05:04 UTC

1 26818U 01023A   26257.21172681  .00000064  00000-0  51678-4 0  9992
2 26818  82.9300 155.5137 0033327 157.7693   6.4373 13.74164346267065

Sigue COSMOS 2378 en tiempo real con AllMySat

Download on the App Store